Location: Bailleul
(50.3375°N, 2.8513°E)
Time: 19:27:20
(UTC+00:00)

Cosmos 1603 - Pass Details

Date: 19 April 2021
Orbit: 830 x 860 km, 71.0° (Epoch: 17 May)

Event Time Altitude Azimuth Distance (km) Brightness Sun altitude
Rises 23:10:59 0° 327° (NNW) 3,440 7.9 -27.6°
Reaches altitude 10° 23:13:31 10° 322° (NW) 2,496 6.9 -27.7°
Enters shadow 23:18:40 47° 260° (W) 1,119 4.2 -27.8°
